Brooklyn Center, MN

11:30 PM CDT on September 29, 2016 (GMT -0500)
Crystal

Weather History for KMIC - June, 2013

Change the Weather History Date:

Tuesday, June 11, 2013

  Actual Average Record
Temperature  
Mean Temperature 64 °F -  
Max Temperature 75 °F 72 °F 91 °F (2016)
Min Temperature 54 °F 52 °F 48 °F (2000)
Growing Degree Days 14 (Base 50)    
Moisture  
Dew Point 60 °F    
Average Humidity 85    
Maximum Humidity 97    
Minimum Humidity 68    
Precipitation  
Precipitation 0.01 in - - ()
Sea Level Pressure  
Sea Level Pressure 29.84 in    
Wind  
Wind Speed 1 mph (WSW)    
Max Wind Speed 8 mph    
Max Gust Speed -    
Visibility 6 miles    
Events Rain    
Averages and records for this station are not official NWS values.
T = Trace of Precipitation, MM = Missing Value Source: NWS Daily Summary

Daily Weather History Graph

Daily Weather History Graph

Search for Another Location

Airport or City:

Trip Planner

Search our weather history database for the weather conditions in past years. The results will help you decide how hot, cold, wet, or windy it might be!

Date:

Astronomy

Jun. 11, 2013 Rise Set
Actual Time 5:26 AM CDT 9:00 PM CDT
Civil Twilight 4:48 AM CDT 9:37 PM CDT
Nautical Twilight 3:59 AM CDT 10:27 PM CDT
Astronomical Twilight 2:54 AM CDT 11:32 PM CDT
Moon 8:15 AM CDT (6/11) 10:56 PM CDT (6/11)
Length of Visible Light 16h 48m
Length of Day
15h 34m
Waxing Crescent, 8% of the Moon is Illuminated
Jun 11
Waxing Crescent
Jun 16
First Quarter
Jun 23
Full
Jun 29
Last Quarter
Jul 8
New

Hourly Weather History & Observations

Time (CDT) Temp. Dew Point Humidity Pressure Visibility Wind Dir Wind Speed Gust Speed Precip Events Conditions
12:53 AM 60.1 °F 57.9 °F 93% 29.83 in 9.0 mi Calm Calm - N/A   Clear
1:53 AM 59.0 °F 55.9 °F 90% 29.85 in 5.0 mi Calm Calm - N/A   Clear
2:53 AM 55.9 °F 55.0 °F 97% 29.82 in 1.8 mi Calm Calm - N/A   Clear
3:23 AM 57.2 °F 55.4 °F 94% 29.83 in 3.0 mi Calm Calm - N/A   Clear
3:41 AM 55.4 °F 53.6 °F 94% 29.84 in 1.8 mi Calm Calm - N/A   Clear
3:53 AM 55.0 °F 54.0 °F 96% 29.83 in 2.5 mi Calm Calm - N/A   Clear
3:56 AM 55.4 °F 53.6 °F 94% 29.83 in 3.0 mi Calm Calm - N/A   Partly Cloudy
3:58 AM 55.4 °F 53.6 °F 94% 29.83 in 1.8 mi Calm Calm - N/A   Partly Cloudy
4:01 AM 55.4 °F 53.6 °F 94% 29.84 in 0.8 mi Calm Calm - N/A   Mist
4:12 AM 55.4 °F 53.6 °F 94% 29.84 in 1.0 mi Calm Calm - N/A   Clear
4:37 AM 55.4 °F 53.6 °F 94% 29.84 in 3.0 mi Calm Calm - N/A   Clear
4:53 AM 54.0 °F 52.0 °F 93% 29.84 in 5.0 mi Calm Calm - N/A   Clear
5:53 AM 55.0 °F 54.0 °F 96% 29.85 in 5.0 mi Calm Calm - N/A   Scattered Clouds
6:53 AM 62.1 °F 59.0 °F 90% 29.86 in 4.0 mi Calm Calm - N/A   Clear
7:53 AM 64.9 °F 61.0 °F 87% 29.85 in 5.0 mi South 5.8 mph - N/A   Partly Cloudy
8:53 AM 64.0 °F 61.0 °F 90% 29.83 in 5.0 mi East 5.8 mph - 0.00 in Rain Light Rain
9:53 AM 66.9 °F 62.1 °F 84% 29.86 in 7.0 mi SSW 4.6 mph - 0.00 in   Clear
10:53 AM 69.1 °F 62.1 °F 78% 29.86 in 10.0 mi Calm Calm - N/A   Clear
11:53 AM 73.0 °F 63.0 °F 71% 29.85 in 10.0 mi Calm Calm - N/A   Clear
12:53 PM 73.0 °F 63.0 °F 71% 29.82 in 10.0 mi Calm Calm - N/A   Clear
1:53 PM 73.9 °F 63.0 °F 68% 29.87 in 10.0 mi SW 4.6 mph - N/A   Scattered Clouds
2:12 PM 73.4 °F 64.4 °F 73% 29.87 in 10.0 mi West 5.8 mph - N/A   Mostly Cloudy
2:26 PM 73.4 °F 64.4 °F 73% 29.83 in 10.0 mi South 8.1 mph - N/A   Scattered Clouds
2:53 PM 73.0 °F 64.0 °F 73% 29.83 in 10.0 mi Calm Calm - N/A   Clear
3:53 PM 73.9 °F 64.0 °F 71% 29.83 in 10.0 mi Calm Calm - N/A   Scattered Clouds
4:53 PM 73.9 °F 64.0 °F 71% 29.83 in 10.0 mi Calm Calm - 0.00 in   Scattered Clouds
5:53 PM 75.0 °F 64.0 °F 69% 29.86 in 10.0 mi WNW 4.6 mph - N/A   Partly Cloudy
6:53 PM 73.9 °F 64.9 °F 73% 29.86 in 10.0 mi NW 5.8 mph - N/A   Clear
7:53 PM 73.9 °F 64.9 °F 73% 29.83 in 10.0 mi North 6.9 mph - N/A   Clear
8:53 PM 71.1 °F 64.9 °F 81% 29.82 in 10.0 mi NNE 4.6 mph - N/A   Clear
9:53 PM 69.1 °F 64.9 °F 87% 29.85 in 9.0 mi WSW 3.5 mph - 0.00 in   Mostly Cloudy
10:53 PM 64.0 °F 62.1 °F 93% 29.87 in 3.0 mi Calm Calm - N/A   Clear
11:24 PM 64.4 °F 62.6 °F 94% 29.87 in 1.8 mi Calm Calm - 0.01 in   Clear
11:38 PM 64.4 °F 62.6 °F 94% 29.87 in 3.0 mi Calm Calm - 0.01 in   Clear
11:45 PM 64.4 °F 62.6 °F 94% 29.87 in 1.8 mi Calm Calm - 0.01 in   Partly Cloudy
11:53 PM 64.0 °F 63.0 °F 96% 29.86 in 2.0 mi Calm Calm - 0.01 in   Scattered Clouds